DG1GMY-13 Weather Reports


time (UTC)temp
F
wind
direction
speed
knots
gust
knots
rain 1hr
in
rain 24hr
in
rain mn
in
humidity
%
barometer
mb
20260507133015 60 0.0 0.0 0.00 0.00 0.00 68 1016.8
20260507130009 60 0.0 0.0 0.00 0.00 0.00 70 1016.7
20260507123003 58 0.0 0.0 0.00 0.00 0.00 76 1016.8
20260507115958 57 0.0 0.0 0.00 0.00 0.00 71 1016.8
20260507112952 55 0.0 0.0 0.00 0.00 0.00 87 1016.5
20260507105946 57 0.0 0.0 0.00 0.00 0.00 80 1016.5
20260507102940 57 0.0 0.0 0.00 0.00 0.00 80 1016.6
20260507095934 57 0.0 0.0 0.00 0.00 0.00 83 1016.4
20260507092928 56 0.0 0.0 0.00 0.00 0.00 86 1016.3
20260507085922 54 0.0 0.0 0.00 0.00 0.00 98 1016.2
20260507082916 54 0.0 0.0 0.00 0.00 0.00 100 1016.0
20260507075911 54 0.0 0.0 0.00 0.00 0.00 100 1016.0
20260507072904 52 0.0 0.0 0.00 0.00 0.00 100 1015.7
20260507065858 52 0.0 0.0 0.00 0.00 0.00 100 1015.5
20260507062852 52 0.0 0.0 0.00 0.00 0.00 100 1015.3
20260507055846 51 0.0 0.0 0.00 0.00 0.00 100 1015.0
20260507052840 50 0.0 0.0 0.00 0.00 0.00 100 1014.8
20260507045834 50 0.0 0.0 0.00 0.00 0.00 100 1014.4
20260507042828 49 0.0 0.0 0.00 0.00 0.00 100 1014.2
20260507035822 48 0.0 0.0 0.00 0.00 0.00 100 1013.9
20260507032816 47 0.0 0.0 0.00 0.00 0.00 100 1013.7
20260507025810 48 0.0 0.0 0.00 0.00 0.00 100 1013.4
20260507022804 48 0.0 0.0 0.00 0.00 0.00 100 1013.3
20260507015758 48 0.0 0.0 0.00 0.00 0.00 100 1012.9
20260507012752 48 0.0 0.0 0.00 0.00 0.00 100 1012.6
20260507005746 48 0.0 0.0 0.00 0.00 0.00 100 1012.4
20260507002740 48 0.0 0.0 0.00 0.00 0.00 100 1012.3
20260506235734 49 0.0 0.0 0.00 0.00 0.00 100 1012.1
20260506232728 48 0.0 0.0 0.00 0.00 0.00 100 1011.9
20260506225722 49 0.0 0.0 0.00 0.00 0.00 100 1011.6
20260506222717 49 0.0 0.0 0.00 0.00 0.00 100 1011.5
20260506215711 49 0.0 0.0 0.00 0.00 0.00 100 1011.4
20260506212705 49 0.0 0.0 0.00 0.00 0.00 100 1011.3
20260506205659 49 0.0 0.0 0.00 0.00 0.00 100 1011.2
20260506202653 49 0.0 0.0 0.00 0.00 0.00 100 1011.0
20260506195647 49 0.0 0.0 0.00 0.00 0.00 100 1010.7
20260506192641 50 0.0 0.0 0.00 0.00 0.00 100 1010.4
20260506185635 50 0.0 0.0 0.00 0.00 0.00 100 1010.2
20260506182629 51 0.0 0.0 0.00 0.00 0.00 100 1009.7
20260506175623 53 0.0 0.0 0.00 0.00 0.00 100 1009.3
20260506172617 55 0.0 0.0 0.00 0.00 0.00 100 1008.7
20260506165611 55 0.0 0.0 0.00 0.00 0.00 100 1008.6
20260506162605 54 0.0 0.0 0.00 0.00 0.00 100 1008.6
20260506155559 53 0.0 0.0 0.00 0.00 0.00 100 1008.9
20260506152553 53 0.0 0.0 0.00 0.00 0.00 100 1008.9
20260506145547 55 0.0 0.0 0.00 0.00 0.00 100 1008.9
20260506142541 56 0.0 0.0 0.00 0.00 0.00 100 1008.6